Location: Pitt
(45.7957°N, 121.2009°W)
Time: 14:03:33
(UTC+00:00)

ISS - Visible Passes

Search period start: 25 May 2022 00:00
Search period end: 04 June 2022 00:00
Orbit: 414 x 421 km, 51.6° (Epoch: 25 May)

Date Brightness Start Highest point End Pass type
(mag) Time Alt. Az. Time Alt. Az. Time Alt. Az.
25 May -1.9 04:17:42 10° WNW 04:20:42 29° N 04:23:42 10° ENE visible
25 May -3.5 05:54:32 10° WNW 05:57:52 66° NNE 05:58:53 40° E visible
25 May -0.9 07:31:44 10° W 07:31:47 10° W 07:31:47 10° W visible
26 May -3.0 05:06:28 10° WNW 05:09:44 48° NNE 05:12:25 14° E visible
26 May -2.2 06:43:21 10° WNW 06:45:19 26° W 06:45:19 26° W visible
27 May -2.5 04:18:22 10° NW 04:21:32 38° NNE 04:24:42 10° E visible
27 May -3.6 05:55:08 10° WNW 05:58:26 55° SW 05:58:52 50° S visible
28 May -3.8 05:06:59 10° WNW 05:10:21 87° SSW 05:12:26 21° ESE visible
28 May -1.1 06:44:47 10° W 06:45:20 12° WSW 06:45:20 12° WSW visible
29 May -3.5 04:18:51 10° WNW 04:22:11 64° NNE 04:25:31 10° ESE visible
29 May -2.2 05:56:01 10° W 05:58:43 23° SW 05:58:55 23° SW visible
30 May -2.8 05:07:34 10° WNW 05:10:41 36° SW 05:12:31 20° SSE visible
31 May -3.5 04:19:17 10° WNW 04:22:35 58° SSW 04:25:52 10° SE visible
01 Jun -1.4 05:08:45 10° W 05:10:45 15° SW 05:12:44 10° S visible
02 Jun -2.0 04:19:57 10° W 04:22:43 24° SW 04:25:28 10° SSE visible
